Tracking 30995 objects as of 5-Jul-2025
HD Live streaming from Space Station
objects crossing your sky now

STARLINK-3672

Track STARLINK-3672 now!
10-day predictions
STARLINK-3672 is classified as:


NORAD ID: 51974
Int'l Code: 2022-025U
Perigee: 553.4 km
Apogee: 555.3 km
Inclination: 53.1 °
Period: 95.6 minutes
Semi major axis: 6925 km
RCS: Unknown
Launch date: March 9, 2022
Source: United States (US)
Launch site: AIR FORCE EASTERN TEST RANGE (AFETR)
Your satellite tracking list
STARLINK-31529
Track 1 satellite(s)




NASA's NSSDC Master Catalog

Two Line Element Set (TLE):
1 51974U 22025U   25186.07651857  .00000229  00000-0  34263-4 0  9993
2 51974  53.0558  62.4608 0001436  91.1066 269.0087 15.06401765183590
Source of the keplerian elements: AFSPC